Wind_Speed
12 13 12 1 3 5 1 4 2 3 5 7 15 5 7 3 5 4 16 25 26 30 31 28 25 21 18 16 18 19 19 20 20 20 19 18 17 17 17 18 16 17 17 18 18 19 19 20 20
12 11 4 2 4 3 4 4 4 5 3 14 10 8 3 1 6 13 24 26 26 30 30 29 27 23 19 18 18 19 19 19 20 19 18 18 17 17 18 18 17 18 18 18 19 19 20 22 21
10 8 3 4 3 3 3 3 3 4 10 11 6 3 1 3 8 25 21 23 28 30 29 29 27 24 20 19 19 19 19 19 19 19 19 18 18 18 19 19 18 18 18 18 19 21 22 21 20
9 2 5 4 2 4 3 1 5 6 6 5 5 5 4 4 18 15 24 21 26 30 29 29 27 25 21 20 19 19 20 20 20 20 19 19 19 19 19 18 18 18 18 19 20 21 19 17 17
6 2 4 2 4 5 4 5 13 6 3 6 7 6 4 11 12 16 22 21 25 30 29 28 27 25 23 21 19 19 20 20 20 20 20 20 20 20 20 19 18 18 19 19 20 19 17 16 14
3 2 4 2 4 5 6 6 12 5 4 9 4 9 7 15 11 18 21 23 25 26 28 28 27 26 23 21 20 20 19 19 20 20 20 20 20 20 20 20 19 19 19 19 19 18 17 15 13
5 4 4 3 3 5 2 15 5 13 5 6 11 4 5 16 15 20 22 22 25 25 26 28 28 27 24 22 20 20 20 19 19 19 19 19 19 19 20 20 19 19 19 19 19 18 17 14 11
2 4 3 4 2 4 8 18 4 15 10 8 16 5 6 22 21 22 22 22 24 25 26 28 28 28 27 24 22 21 20 20 19 19 19 19 19 19 20 20 20 19 19 19 19 18 17 15 12
4 4 3 4 6 3 12 8 2 3 12 11 12 3 9 26 27 25 26 26 26 27 26 27 29 29 28 26 24 22 21 21 20 20 20 20 20 20 20 20 21 20 20 18 18 18 18 15 13
4 4 9 5 2 3 9 5 13 1 7 4 12 6 15 28 29 29 29 29 29 29 28 28 29 30 29 28 26 26 25 24 23 23 22 21 20 20 20 21 22 22 21 20 18 17 18 17 15
6 6 5 4 6 6 7 12 14 1 3 8 21 15 25 31 31 30 29 27 26 27 28 29 29 30 30 30 29 28 28 26 25 24 23 22 21 21 21 21 23 23 23 23 22 20 19 17 16
3 9 7 4 1 5 6 13 8 11 6 8 12 16 28 34 33 32 30 28 27 27 27 28 28 29 30 30 30 30 30 29 28 26 25 25 25 24 24 24 23 23 23 23 22 20 19 18 18
3 3 8 12 9 14 9 8 7 11 9 6 10 17 28 34 33 31 30 28 27 27 28 28 28 29 30 31 31 30 31 30 28 28 27 27 26 26 25 24 24 23 23 23 22 21 21 20 19
3 7 10 10 8 8 4 8 4 8 13 8 11 18 27 32 32 32 33 31 29 27 28 29 29 29 29 31 32 32 31 30 29 29 29 28 27 27 26 26 25 25 24 22 22 21 21 20 21
6 6 9 9 8 7 4 9 7 19 9 13 15 18 24 30 32 34 30 31 28 28 29 30 31 31 32 33 33 33 32 32 32 31 31 31 30 28 28 27 27 26 25 23 23 23 23 23 23
1 1 3 3 10 9 12 11 5 12 14 16 16 19 25 31 30 34 34 33 32 31 31 32 32 33 33 34 36 36 35 35 34 33 33 33 32 31 30 30 29 27 26 26 26 26 25 25 25
3 5 5 5 8 1 7 4 7 18 16 16 16 17 20 26 36 35 39 39 37 35 35 33 34 35 35 36 38 38 38 37 36 35 35 35 35 34 34 33 31 29 29 29 28 28 27 26 26
7 4 4 5 3 3 5 8 6 13 13 18 21 22 22 25 28 30 34 42 41 42 42 40 38 37 37 39 40 40 40 40 40 38 38 37 38 37 36 36 35 33 32 32 31 29 28 27 24
4 5 5 2 5 3 7 6 11 19 20 14 21 23 26 27 26 29 33 36 43 46 48 47 46 45 43 41 43 44 44 43 42 41 41 41 40 40 39 39 38 37 36 36 33 31 30 29 26
6 6 7 4 6 1 6 10 10 9 12 22 26 27 28 30 31 26 29 32 40 39 40 47 46 48 45 43 41 43 43 43 42 42 42 42 42 41 41 40 40 40 39 39 37 35 34 32 29
13 14 13 11 3 5 3 12 5 10 14 23 30 33 33 30 31 27 28 26 29 32 35 36 32 36 38 35 38 40 42 43 44 45 43 43 41 40 39 39 39 39 40 41 41 39 38 37 33
19 8 8 6 4 7 4 13 8 7 15 9 23 29 32 24 24 28 28 25 27 29 29 30 33 35 36 36 38 38 36 40 41 43 43 43 41 39 37 37 37 38 37 38 39 39 40 39 39
13 7 9 7 7 1 9 4 8 7 11 17 8 24 28 25 22 29 31 30 29 29 32 34 34 37 39 39 40 41 42 40 42 41 38 38 38 36 34 34 35 37 38 37 36 37 38 40 41
5 7 7 4 5 9 20 11 24 13 11 6 5 20 29 27 22 23 27 28 28 23 24 26 34 43 43 42 41 42 43 41 38 38 37 36 34 32 31 32 32 34 38 39 38 38 40 39 41
7 6 4 6 5 11 15 11 25 5 4 10 11 24 28 24 24 26 23 23 24 24 25 26 30 39 45 45 44 42 43 39 34 34 35 33 32 30 28 27 29 32 36 36 37 40 41 41 39
19 15 5 11 12 17 8 10 19 19 30 28 29 22 18 25 29 29 24 24 28 28 28 29 28 34 43 43 39 39 38 34 32 29 30 31 30 27 25 24 25 25 28 29 32 34 37 39 39
8 17 22 7 4 3 7 6 10 4 9 9 18 26 35 31 25 28 25 25 32 37 36 32 31 35 39 39 35 33 33 33 29 26 26 27 26 24 23 24 23 23 24 26 28 30 32 33 36
20 9 10 11 19 21 5 5 9 9 14 9 8 15 24 23 24 23 28 32 41 36 35 34 29 30 33 35 30 30 31 28 27 25 26 25 23 22 22 22 22 22 23 25 26 27 29 30 32
13 17 12 5 15 17 20 18 6 8 7 10 11 24 17 21 22 20 26 35 35 27 27 29 28 31 33 30 30 31 29 27 26 24 23 21 21 21 21 21 22 25 23 25 27 27 29 29 29
11 23 24 15 12 9 19 18 3 8 8 6 15 19 22 19 19 21 24 30 23 24 26 30 32 32 33 33 32 29 28 27 25 22 21 20 21 21 21 22 24 25 23 25 24 24 25 25 28
Wind_Direction
341 339 340 359 55 63 178 243 274 132 150 182 152 173 186 170 165 206 144 165 171 170 166 168 166 169 162 153 145 140 138 137 137 136 134 132 126 123 127 131 126 127 128 125 122 120 117 114 110
342 344 359 39 81 73 259 277 237 212 167 154 159 134 130 182 150 140 148 164 172 172 168 170 169 171 166 159 151 145 142 141 140 139 135 133 130 128 132 133 130 129 127 126 125 122 119 114 110
345 350 9 88 103 158 195 205 235 284 165 148 137 116 139 161 158 148 156 163 171 175 173 172 172 174 170 164 157 150 147 145 144 144 142 138 136 134 137 137 135 133 131 131 127 124 124 124 117
345 16 55 81 236 250 212 263 185 127 188 148 158 110 126 131 148 157 158 168 172 177 176 175 175 176 176 169 163 156 153 151 150 150 148 145 143 140 142 141 141 139 138 137 135 133 131 131 128
350 51 56 68 265 268 252 276 159 164 170 170 160 167 121 151 156 159 161 171 174 176 178 178 178 179 180 174 169 163 161 158 155 154 154 150 149 147 147 148 146 144 143 145 145 143 137 129 128
40 62 68 231 257 283 299 306 177 212 188 150 137 134 136 159 166 165 170 170 172 176 178 180 180 182 183 181 176 170 167 166 162 159 158 156 155 153 152 153 153 151 150 154 155 151 145 138 128
111 85 193 202 260 302 286 338 207 199 182 191 154 132 160 174 170 171 171 168 171 179 181 182 183 185 187 187 185 178 175 174 170 166 164 163 160 160 160 160 160 159 159 162 162 162 158 154 145
92 92 144 242 218 266 352 354 254 191 201 162 175 189 185 177 169 167 168 170 177 183 186 186 188 188 190 191 191 188 182 180 178 174 172 170 168 169 167 167 168 168 168 169 170 171 172 174 171
131 66 193 239 164 259 351 5 349 206 160 157 180 242 195 170 167 169 171 176 184 188 191 190 192 193 194 195 195 194 191 187 185 182 181 180 178 177 175 175 174 176 177 178 178 179 182 190 189
123 134 212 219 213 335 319 335 315 312 158 159 183 202 180 174 172 180 180 181 186 191 193 196 195 197 197 198 200 198 196 194 193 191 189 188 187 186 185 183 182 183 185 185 186 186 188 196 205
173 186 215 261 270 335 326 340 336 296 266 207 192 184 176 179 181 189 190 190 188 190 197 198 201 200 201 202 203 204 202 202 200 198 197 195 194 194 194 195 192 191 193 193 193 197 197 199 208
202 233 205 270 304 329 320 312 303 270 253 246 222 214 183 187 191 197 199 194 197 195 201 203 203 205 206 208 209 211 208 207 207 204 204 203 202 202 202 203 204 203 201 202 201 202 205 208 211
220 259 239 252 275 298 305 270 253 274 245 235 225 206 195 197 201 205 209 204 201 205 207 208 208 209 211 213 215 216 217 214 215 212 211 211 211 212 211 211 212 213 212 211 210 209 208 214 219
259 245 268 265 242 271 253 277 149 266 239 221 197 213 208 205 211 208 211 214 213 213 216 214 215 216 216 219 221 221 221 220 219 221 218 219 219 220 220 219 220 220 221 220 221 220 219 219 224
256 291 300 242 224 225 180 286 194 262 225 207 200 207 211 216 217 219 221 221 222 224 222 224 221 221 221 226 226 226 226 225 223 225 225 224 225 225 226 227 227 225 227 227 227 229 228 228 228
273 239 224 287 187 226 160 254 225 250 231 225 222 215 217 221 232 234 230 229 228 230 233 230 229 229 229 230 231 230 229 229 230 228 229 230 229 230 231 231 233 233 231 231 232 233 236 238 239
242 229 224 320 201 131 181 225 221 224 249 251 242 239 237 235 231 237 241 235 234 237 236 240 240 239 237 235 236 235 235 234 234 234 233 233 234 234 234 236 237 236 237 237 236 237 238 243 247
201 203 243 222 273 234 214 235 252 211 226 243 268 269 268 257 246 249 245 246 242 241 241 242 245 248 243 239 239 239 238 238 238 238 238 237 238 237 238 239 240 238 240 240 239 240 239 242 249
139 180 217 246 264 283 244 246 263 265 268 241 245 259 269 267 272 265 256 252 248 243 243 245 246 249 248 243 240 240 241 239 239 240 241 241 240 241 241 242 243 242 242 244 244 245 243 242 243
230 228 240 267 264 206 292 269 249 258 253 253 254 252 252 264 272 257 254 253 251 240 239 244 247 245 249 249 246 241 241 242 243 243 243 243 243 243 243 245 247 247 245 245 245 243 245 246 241
230 231 239 242 348 273 335 286 230 255 250 256 256 258 259 259 265 246 249 245 231 238 240 240 240 238 240 242 240 237 238 242 243 243 243 244 245 246 246 245 248 251 250 247 248 246 244 246 244
235 201 233 192 158 249 131 276 236 230 256 224 237 247 249 250 268 235 237 239 223 232 240 242 238 236 234 236 239 238 239 237 240 242 244 245 246 245 246 246 247 250 254 251 248 250 247 245 246
244 192 200 186 206 70 256 309 266 166 240 252 224 240 243 253 264 232 226 236 233 238 245 246 243 236 235 236 238 239 237 242 245 248 250 250 250 249 248 248 247 249 252 255 253 251 249 246 247
223 229 225 186 179 227 237 206 267 235 230 255 243 241 250 250 251 235 234 237 237 237 249 250 251 240 234 233 236 238 239 241 246 250 251 253 256 257 257 254 251 252 252 254 256 255 254 249 246
217 149 217 221 197 229 228 198 242 260 232 223 243 248 241 239 240 243 242 245 251 261 267 270 266 238 232 232 235 238 239 241 246 247 249 253 257 259 261 262 261 258 258 260 260 258 256 256 253
214 212 193 214 216 239 163 210 238 223 250 261 270 270 260 254 246 251 262 273 276 269 269 271 266 234 228 231 233 235 237 240 239 241 246 251 254 257 258 262 267 266 268 265 264 262 262 257 257
199 218 228 285 297 297 225 254 286 218 221 245 255 255 260 260 257 266 271 290 285 269 265 266 258 233 231 229 228 228 230 229 235 241 245 250 251 251 250 255 262 265 261 267 265 264 263 260 260
218 215 234 233 241 249 246 239 231 222 222 239 244 252 260 263 256 269 285 286 298 267 252 258 243 229 227 224 221 219 219 227 235 240 243 244 247 245 241 244 251 256 261 262 259 264 261 261 263
211 223 231 240 218 228 250 243 215 240 236 226 242 245 265 285 286 296 310 303 288 252 242 249 225 218 217 212 209 213 220 226 231 234 236 236 239 238 237 244 256 253 261 265 258 261 260 262 259
228 213 217 226 237 234 241 243 229 227 255 238 274 283 283 281 282 290 301 319 296 257 243 234 215 209 204 204 208 214 218 221 223 227 228 232 237 237 236 243 250 256 261 265 263 265 264 265 262
Height
1503 1501 1500 1499 1510 1512 1518 1507 1497 1497 1500 1497 1500 1504 1503 1503 1506 1521 1505 1511 1516 1521 1525 1529 1533 1537 1539 1540 1541 1542 1544 1545 1547 1549 1552 1555 1557 1559 1561 1564 1565 1567 1568 1569 1570 1571 1572 1573 1574
1502 1500 1499 1498 1517 1527 1521 1502 1498 1495 1495 1498 1501 1502 1502 1503 1503 1503 1507 1512 1517 1521 1525 1529 1533 1536 1538 1540 1542 1543 1545 1547 1548 1550 1553 1555 1558 1561 1562 1564 1566 1567 1569 1570 1572 1574 1575 1576 1578
1501 1500 1500 1507 1526 1523 1518 1498 1495 1494 1496 1498 1500 1501 1502 1503 1503 1505 1508 1512 1516 1521 1526 1529 1533 1536 1538 1541 1542 1544 1545 1547 1549 1551 1553 1557 1559 1561 1564 1565 1567 1569 1571 1573 1575 1576 1577 1579 1580
1502 1502 1504 1515 1513 1505 1500 1494 1492 1496 1498 1497 1499 1502 1504 1504 1506 1506 1509 1513 1516 1520 1525 1529 1533 1536 1538 1541 1543 1545 1546 1548 1550 1552 1554 1557 1560 1562 1564 1566 1568 1570 1572 1574 1576 1578 1580 1581 1582
1502 1502 1516 1520 1513 1503 1496 1492 1490 1495 1496 1498 1500 1502 1502 1504 1505 1507 1509 1512 1516 1520 1525 1529 1532 1536 1539 1541 1544 1546 1548 1549 1551 1553 1555 1558 1560 1562 1565 1567 1569 1571 1573 1575 1577 1579 1580 1582 1584
1502 1505 1523 1525 1513 1501 1496 1493 1492 1492 1494 1496 1499 1499 1502 1504 1506 1508 1511 1513 1517 1521 1525 1529 1533 1537 1540 1542 1544 1546 1549 1551 1552 1554 1556 1558 1560 1563 1565 1567 1570 1572 1574 1575 1577 1580 1582 1584 1585
1503 1512 1520 1516 1512 1504 1495 1493 1492 1490 1492 1494 1496 1501 1501 1503 1505 1509 1511 1514 1518 1522 1526 1529 1532 1536 1540 1542 1545 1546 1549 1552 1554 1556 1557 1559 1562 1564 1566 1568 1570 1572 1574 1576 1578 1580 1582 1584 1586
1503 1507 1515 1513 1512 1503 1493 1491 1488 1488 1489 1493 1495 1498 1500 1500 1504 1509 1513 1516 1519 1523 1526 1529 1532 1534 1538 1541 1544 1547 1549 1551 1554 1557 1559 1560 1562 1564 1566 1569 1571 1573 1575 1576 1578 1580 1583 1585 1586
1502 1516 1523 1508 1508 1497 1494 1494 1490 1488 1488 1490 1494 1495 1496 1499 1503 1508 1511 1515 1518 1521 1524 1528 1531 1533 1536 1540 1543 1546 1548 1551 1553 1556 1558 1560 1562 1564 1566 1568 1571 1573 1575 1577 1579 1581 1583 1584 1585
1501 1517 1512 1499 1496 1496 1494 1494 1492 1490 1488 1490 1492 1494 1495 1498 1501 1505 1507 1510 1514 1517 1521 1525 1528 1531 1534 1538 1541 1544 1546 1549 1551 1554 1556 1559 1561 1564 1566 1567 1569 1571 1574 1576 1579 1580 1582 1582 1583
1499 1506 1499 1494 1495 1495 1494 1492 1492 1490 1492 1487 1487 1491 1494 1497 1500 1504 1507 1508 1508 1515 1519 1521 1526 1529 1532 1535 1538 1541 1544 1546 1549 1552 1555 1557 1560 1562 1564 1567 1568 1570 1571 1574 1576 1578 1580 1581 1582
1496 1492 1493 1493 1493 1494 1495 1494 1491 1489 1487 1487 1488 1490 1491 1495 1498 1501 1504 1507 1510 1513 1516 1520 1523 1527 1530 1533 1535 1538 1541 1544 1547 1550 1552 1555 1557 1559 1561 1563 1566 1568 1570 1572 1574 1576 1579 1581 1581
1494 1491 1490 1490 1491 1491 1491 1491 1493 1487 1487 1486 1487 1489 1491 1493 1496 1499 1504 1508 1510 1512 1514 1517 1520 1524 1527 1530 1533 1536 1539 1541 1545 1548 1550 1553 1555 1557 1559 1562 1564 1566 1569 1571 1572 1574 1577 1578 1580
1489 1490 1487 1486 1486 1487 1489 1486 1488 1484 1485 1485 1486 1488 1490 1492 1493 1498 1501 1504 1507 1510 1512 1514 1517 1520 1524 1526 1529 1532 1536 1539 1542 1545 1547 1549 1552 1555 1557 1560 1561 1564 1566 1570 1572 1573 1575 1576 1577
1487 1491 1487 1482 1483 1483 1483 1485 1485 1481 1483 1482 1484 1485 1488 1490 1493 1494 1498 1501 1504 1506 1509 1511 1514 1517 1519 1522 1525 1528 1532 1535 1538 1541 1544 1546 1549 1551 1554 1556 1558 1561 1563 1566 1569 1571 1572 1573 1573
1488 1489 1495 1478 1477 1478 1480 1487 1477 1476 1480 1482 1482 1483 1485 1488 1489 1492 1495 1499 1502 1504 1505 1508 1511 1513 1516 1518 1521 1523 1527 1530 1534 1537 1540 1542 1544 1547 1550 1552 1554 1558 1561 1562 1564 1566 1568 1569 1570
1491 1500 1494 1483 1474 1474 1476 1480 1471 1473 1474 1476 1479 1481 1483 1484 1486 1488 1489 1493 1497 1500 1502 1503 1506 1508 1511 1514 1516 1519 1522 1525 1529 1532 1534 1537 1540 1543 1545 1547 1550 1554 1556 1558 1560 1561 1563 1565 1567
1492 1497 1492 1487 1474 1474 1477 1478 1467 1466 1469 1471 1472 1474 1476 1477 1480 1482 1484 1485 1490 1494 1496 1499 1501 1503 1506 1510 1512 1515 1517 1520 1522 1525 1528 1531 1534 1537 1540 1542 1545 1549 1551 1553 1554 1556 1559 1560 1563
1478 1485 1484 1483 1476 1477 1477 1478 1472 1468 1464 1465 1467 1467 1467 1468 1471 1473 1476 1477 1479 1485 1488 1491 1494 1497 1499 1501 1504 1507 1507 1511 1514 1518 1521 1524 1527 1530 1534 1536 1539 1543 1545 1547 1550 1552 1554 1555 1557
1478 1481 1484 1481 1476 1479 1479 1476 1470 1464 1459 1458 1459 1460 1462 1463 1463 1464 1466 1468 1468 1472 1478 1481 1484 1487 1490 1493 1496 1499 1502 1505 1509 1511 1514 1517 1519 1523 1527 1530 1532 1535 1539 1541 1544 1546 1548 1549 1552
1477 1477 1479 1482 1475 1473 1476 1471 1466 1456 1451 1449 1449 1450 1452 1454 1455 1456 1458 1459 1461 1464 1468 1472 1475 1478 1482 1485 1488 1492 1496 1499 1502 1503 1506 1508 1512 1516 1519 1523 1525 1528 1531 1533 1536 1539 1541 1543 1546
1472 1469 1473 1478 1485 1490 1473 1477 1457 1452 1444 1442 1438 1441 1442 1445 1445 1447 1451 1454 1456 1459 1461 1464 1468 1471 1475 1478 1480 1483 1486 1488 1491 1494 1498 1501 1505 1509 1513 1516 1518 1520 1523 1525 1528 1531 1534 1537 1538
1460 1464 1471 1473 1479 1482 1478 1494 1451 1445 1443 1431 1432 1435 1436 1437 1438 1438 1442 1446 1451 1455 1456 1458 1461 1464 1466 1469 1472 1475 1478 1482 1484 1488 1493 1495 1499 1503 1507 1510 1512 1514 1516 1518 1521 1524 1526 1528 1531
1456 1462 1463 1468 1476 1485 1465 1483 1428 1439 1434 1429 1426 1427 1429 1430 1432 1432 1436 1440 1444 1447 1449 1451 1452 1453 1457 1460 1464 1467 1471 1475 1478 1482 1485 1488 1492 1496 1499 1502 1505 1507 1509 1510 1513 1515 1517 1520 1522
1457 1462 1477 1479 1483 1467 1449 1474 1431 1421 1421 1419 1421 1421 1423 1424 1425 1427 1430 1434 1437 1439 1440 1440 1440 1441 1446 1451 1455 1459 1464 1470 1474 1476 1479 1482 1486 1489 1492 1495 1497 1499 1501 1504 1506 1508 1509 1512 1514
1449 1453 1463 1468 1464 1449 1451 1457 1418 1411 1417 1417 1417 1418 1417 1419 1419 1420 1423 1427 1429 1430 1430 1431 1430 1431 1436 1442 1447 1452 1458 1463 1466 1470 1473 1476 1480 1484 1487 1489 1490 1492 1495 1497 1499 1500 1502 1504 1506
1445 1452 1438 1455 1448 1456 1440 1430 1417 1410 1410 1410 1410 1411 1412 1415 1415 1416 1419 1418 1419 1419 1421 1422 1422 1424 1429 1435 1441 1446 1452 1455 1459 1463 1467 1470 1474 1477 1480 1483 1485 1486 1488 1490 1492 1494 1495 1496 1498
1436 1437 1452 1451 1459 1459 1443 1437 1423 1411 1408 1406 1407 1407 1406 1409 1411 1412 1412 1410 1408 1406 1410 1413 1414 1418 1423 1429 1435 1440 1445 1449 1454 1457 1460 1463 1466 1469 1473 1476 1478 1480 1482 1484 1486 1487 1488 1489 1491
1433 1436 1437 1436 1436 1446 1441 1424 1413 1408 1406 1406 1401 1399 1404 1404 1405 1406 1405 1403 1398 1396 1399 1404 1407 1411 1418 1424 1430 1435 1439 1443 1447 1450 1454 1457 1460 1463 1466 1469 1472 1474 1476 1478 1479 1480 1481 1483 1485
1419 1419 1425 1434 1435 1430 1424 1413 1398 1401 1402 1403 1401 1398 1402 1402 1401 1401 1402 1399 1392 1391 1392 1396 1400 1406 1413 1419 1424 1429 1434 1438 1441 1445 1448 1451 1454 1457 1460 1463 1465 1468 1469 1471 1472 1474 1476 1477 1479